Location: Mouss�
(47.9236°N, 1.2701°W)
Time: 22:13:37
(UTC+00:00)

Meteor 1-13 Rocket - Pass Details

Date: 03 March 2021
Orbit: 830 x 913 km, 81.3° (Epoch: 20 April)

Event Time Altitude Azimuth Distance (km) Brightness Sun altitude
Rises 19:34:56 0° 349° (N) 3,559 7.7 -17.8°
Reaches altitude 10° 19:37:27 10° 352° (N) 2,611 7.0 -18.3°
Maximum altitude 19:43:25 72° 77° (ENE) 953 4.2 -19.2°
Enters shadow 19:48:29 14° 161° (SSE) 2,275 6.1 -20.1°
